Regional Weather Roundup
Issued by NWS Green Bay, WI

Home | Current Version | Previous Version | Text Only | Print | Product List | Glossary On
Versions: 1 2 3 4 5 6 7 8 9 10 11 12 13 14 15 16 17 18 19 20 21 22 23 24 25 26 27 28 29 30 31 32 33 34 35 36 37 38 39 40 41 42 43 44 45 46 47 48 49 50
538
ASUS43 KGRB 262311
RWRGRB

NORTH-CENTRAL AND NORTHEAST WISCONSIN REGIONAL WEATHER ROUNDUP
NATIONAL WEATHER SERVICE GREEN BAY WI
600 PM CDT WED JUL 26 2017

WIZ005-009-010>012-018-019-270000-
NORTH CENTRAL WISCONSIN

CITY           SKY/WX    TMP DP  RH WIND       PRES   REMARKS
IRONWOOD       SUNNY     77  59  53 NW8G16    29.98F
MANITOWISH WTR SUNNY     78  59  52 N10       29.98S
ARBOR VITAE    SUNNY     80  60  51 N8        29.97S
EAGLE RIVER    MOSUNNY   79  57  46 N9        29.96S
LAND O LAKES   SUNNY     79  52  39 N12       30.00R
RHINELANDER    MOSUNNY   80  60  50 NW8       29.98S
PHILLIPS       MOSUNNY   78  61  55 CALM      29.97S
ANTIGO         CLOUDY    75  69  82 W6        29.98S
TOMAHAWK       NOT AVBL
MERRILL        PTSUNNY   77  70  78 W7        29.98S
$$

WIZ013-073-270000-
NORTHEAST WISCONSIN

CITY           SKY/WX    TMP DP  RH WIND       PRES   REMARKS
IRON MOUNTAIN  MOSUNNY   83  59  44 W6        29.91F
MARINETTE      CLOUDY    77  71  82 SW6       29.93F
OCONTO         CLOUDY    77  71  80 SW6       29.93F
$$

WIZ017-030-035>037-045-270000-
CENTRAL WISCONSIN

CITY           SKY/WX    TMP DP  RH WIND       PRES   REMARKS
MEDFORD        PTSUNNY   73  68  82 SW3       29.98F
WAUSAU         CLOUDY    74  69  85 W9        29.96F
MOSINEE        PTSUNNY   75  70  83 W8        29.99F
MARSHFIELD     MOSUNNY   77  67  71 W8        29.97F
WISC RAPIDS    CLOUDY    76  70  82 VRB7      29.98F
STEVENS POINT  CLOUDY    74  70  85 W7        29.98S
WAUPACA        CLOUDY    79  72  79 W5        29.97S
SHAWANO        CLOUDY    78  69  74 SW6       29.95S
CLINTONVILLE   CLOUDY   N/A N/A N/A SW6       29.96S
WAUTOMA        CLOUDY    79  72  79 SW7       29.97F
$$

WIZ038-039-048-051-270000-
FOX VALLEY

CITY           SKY/WX    TMP DP  RH WIND       PRES   REMARKS
NWS GREEN BAY  CLOUDY    76  75  97 S8        29.95S
APPLETON       PTSUNNY   75  73  94 SW8       29.95S
OSHKOSH        CLOUDY    75  72  90 SW8       29.96S
FOND DU LAC    LGT RAIN  75  70  84 CALM      29.96F
$$

WIZ022-050-052-270000-
EAST CENTRAL WISCONSIN

CITY           SKY/WX    TMP DP  RH WIND       PRES   REMARKS
EPHRAIM        MOCLDY    74  70  87 SW5       29.93F
WASHINGTON ISL FAIR      74  69  85 SW7       29.92F
STURGEON BAY     N/A     76  71  85 SW7       29.95F
MANITOWOC      LGT RAIN  73  70  90 S10       29.96F
SHEBOYGAN      LGT RAIN  72  72 100 SE8       29.95F
$$

LMZ563-521-522-541>543-270000-
LAKESHORE

STATION/POSITION TIME  TEMP    WIND        PRES    VSBY  WAVE
                       AIR SEA DIR/SP/G                  HT/PER
                 (UTC) (F)     (DEG/KT/KT) (MB)    (MI)  (FT/S)
SHEBOYGAN LKSHOR 2300   70     140/ 14/ 15 1013.5F
KEWAUNEE LKSHORE 2248   69     180/ 11/ 13 1013.5F
NORTHPORT PIER   2240   76     210/  6/ 10 1013.2F
N MID LAKE BUOY  2150   67 65  200/ 17/ 23 1014.0          4/ 6
S GREEN BAY BUOY 2300   73 72  200/  8/ 10 1013.5
SISTER BAY LKSHO 2302   76     230/ 10/ 13   N/A
CHAMBERS ISLAND  2240   74     190/  6/ 13 1012.9F
MENOMINEE LKSHOR 2248   76     200/  8/ 10 1013.1F
$$




USA.gov is the U.S. government's official web portal to all federal, state and local government web resources and services.